Location: Newark
(46.9000°N, 28.3500°E)
Time: 09:58:26
(UTC+00:00)

Transit 2A Rocket - All Passes

Search period start: 22 August 2019 00:00
Search period end: 01 September 2019 00:00
Orbit: 590 x 913 km, 66.7° (Epoch: 21 August)

Date Brightness Start Highest point End Pass type
(mag) Time Alt. Az. Time Alt. Az. Time Alt. Az.
22 Aug - 01:40:22 10° NNW 01:44:59 57° NE 01:49:17 10° SE visible
22 Aug - 03:23:56 10° WNW 03:27:01 18° WSW 03:30:00 10° SSW daylight
22 Aug - 16:17:36 10° SSE 16:22:15 25° ESE 16:26:37 10° ENE daylight
22 Aug - 17:58:54 10° SW 18:04:34 60° NW 18:09:46 10° NNE visible
22 Aug - 19:44:48 10° WNW 19:48:08 16° NNW 19:51:20 10° N visible
22 Aug - 23:17:25 10° NNE 23:18:11 10° NNE 23:18:57 10° NNE visible
23 Aug - 00:57:59 10° NNW 01:02:18 35° NE 01:06:21 10° ESE visible
23 Aug - 02:40:44 10° NW 02:44:47 32° WSW 02:48:38 10° S visible
23 Aug - 15:36:46 10° SE 15:40:00 15° ESE 15:43:06 10° ENE daylight
23 Aug - 17:16:13 10° SSW 17:21:59 88° SE 17:27:18 10° NE daylight
23 Aug - 19:00:57 10° W 19:05:12 22° NW 19:09:12 10° NNE visible
24 Aug - 00:15:42 10° NNW 00:19:30 23° NE 00:23:05 10° E visible
24 Aug - 01:57:56 10° NW 02:02:27 58° WSW 02:06:41 10° SSE visible
24 Aug - 16:33:54 10° SSW 16:39:30 56° ESE 16:44:42 10° NE daylight
24 Aug - 18:17:26 10° WSW 18:22:22 31° NW 18:26:58 10° NNE visible
24 Aug - 20:05:55 10° NNW 20:06:35 10° NNW 20:07:14 10° NNW visible
24 Aug - 23:33:33 10° N 23:36:35 17° NNE 23:39:28 10° ENE visible
25 Aug - 01:15:20 10° NNW 01:19:58 81° NE 01:24:19 10° SE visible
25 Aug - 02:59:58 10° W 03:01:44 12° WSW 03:03:28 10° SW daylight
25 Aug - 15:51:58 10° S 15:57:06 34° ESE 16:01:54 10° NE daylight
25 Aug - 17:34:13 10° WSW 17:39:38 45° NW 17:44:38 10° NNE visible
25 Aug - 19:20:56 10° NW 19:23:28 13° NNW 19:25:54 10° N visible
25 Aug - 22:51:38 10° N 22:53:33 12° NNE 22:55:25 10° NE visible
26 Aug - 00:32:53 10° NNW 00:37:23 47° NE 00:41:36 10° SE visible
26 Aug - 02:16:06 10° WNW 02:19:34 22° WSW 02:22:54 10° SSW visible
26 Aug - 15:10:35 10° SSE 15:14:48 21° ESE 15:18:48 10° ENE daylight
26 Aug - 16:51:19 10° SW 16:57:00 70° NW 17:02:14 10° NNE daylight
26 Aug - 18:36:49 10° WNW 18:40:27 18° NW 18:43:54 10° N visible
26 Aug - 23:50:32 10° NNW 23:54:40 30° NE 23:58:33 10° ESE visible
27 Aug - 01:33:04 10° NW 01:37:18 39° WSW 01:41:19 10° S visible
27 Aug - 14:30:16 10° SE 14:32:36 13° ESE 14:34:52 10° E daylight
27 Aug - 16:08:45 10° SSW 16:14:28 76° ESE 16:19:43 10° NE daylight
27 Aug - 17:53:05 10° W 17:57:33 24° NW 18:01:44 10° NNE visible
27 Aug - 23:08:18 10° NNW 23:11:49 20° NE 23:15:10 10° E visible
28 Aug - 00:50:21 10° NW 00:54:55 71° WSW 00:59:12 10° SSE visible
28 Aug - 15:26:33 10° S 15:32:01 47° ESE 15:37:04 10° NE daylight
28 Aug - 17:09:40 10° WSW 17:14:45 35° NW 17:19:28 10° NNE daylight
28 Aug - 18:57:26 10° NW 18:58:49 11° NNW 19:00:12 10° N visible
28 Aug - 22:26:13 10° N 22:28:51 15° NNE 22:31:25 10° ENE visible
29 Aug - 00:07:49 10° NNW 00:12:24 67° NE 00:16:43 10° SE visible
29 Aug - 01:51:47 10° WNW 01:54:19 15° WSW 01:56:46 10° SW visible
29 Aug - 14:44:48 10° S 14:49:39 29° ESE 14:54:12 10° NE daylight
29 Aug - 16:26:33 10° SW 16:32:04 52° NW 16:37:07 10° NNE daylight
29 Aug - 18:12:52 10° WNW 18:15:45 14° NNW 18:18:30 10° N visible
29 Aug - 21:44:32 10° N 21:45:48 11° NNE 21:47:03 10° NE visible
29 Aug - 23:25:24 10° NNW 23:29:46 40° NE 23:33:52 10° ESE visible
30 Aug - 01:08:21 10° NW 01:12:06 26° WSW 01:15:43 10° SSW visible
30 Aug - 14:03:41 10° SSE 14:07:22 18° ESE 14:10:54 10° ENE daylight
30 Aug - 15:43:47 10° SW 15:49:28 81° WNW 15:54:41 10° NNE daylight
30 Aug - 17:28:53 10° W 17:32:46 20° NW 17:36:27 10° N visible
30 Aug - 22:43:06 10° NNW 22:47:00 26° NE 22:50:42 10° E visible
31 Aug - 00:25:27 10° NW 00:29:48 47° WSW 00:33:56 10° S visible
31 Aug - 13:24:49 10° ESE 13:25:12 10° ESE 13:25:34 10° E daylight
31 Aug - 15:01:20 10° SSW 15:06:57 64° ESE 15:12:07 10° NE daylight
31 Aug - 16:45:15 10° W 16:49:54 27° NW 16:54:15 10° NNE daylight
31 Aug - 22:00:55 10° N 22:04:08 18° NE 22:07:12 10° ENE visible
31 Aug - 23:42:48 10° NW 23:47:22 85° WSW 23:51:41 10° SSE visible
